{"data":{"norad_id":59698,"intl_designator":"2024-086S","name":"STARLINK-32096","alt_names":[],"object_type":"PAYLOAD","status":"ACTIVE","operator":null,"country":"US","launch_date":"2024-05-08","launch_site_code":"AFETR","launch_vehicle":null,"mission":null,"orbit_class":"UNKNOWN","rcs_meters":null,"size_class":null,"mass_kg":null,"dimensions":null,"purposes":["comms"],"wikipedia_slug":null,"has_3d_model":false,"image_url":null,"decayed_at":null,"tle_current":{"epoch":"2026-05-24T20:55:59.888352Z","epoch_age_seconds":92897,"freshness":"FRESH","line1":"1 59698U 24086S   26144.87222093  .00000427  00000+0  25049-4 0  9993","line2":"2 59698  43.0039 349.6239 0001344 275.6942  84.3756 15.27583847115764","mean_motion":15.27583847,"eccentricity":0.0001344,"inclination_deg":43.0039,"raan_deg":349.6239,"arg_perigee_deg":275.6942,"mean_anomaly_deg":84.3756,"bstar":2.5049e-5,"rev_number":11576,"period_min":94.266511316416,"perigee_km":482.11543489876,"apogee_km":483.95971862499,"semimajor_km":6861.1745767619,"source":"CELESTRAK","updated_at":"2026-05-25T13:38:19.043403Z"}}}